Theta_e
317 317 318 318 319 319 319 319 319 319 319 319 319 319 318 318 318 317 317 318 318 319 319 319 319 318 321 326 325 334 326 328 337 338 341 336 335 336 338 337 337 339 342 342 342 343 346
317 317 318 318 318 318 319 319 319 319 319 319 319 319 319 319 318 318 317 317 318 319 319 319 319 319 321 330 333 330 330 337 338 340 335 334 335 336 339 337 337 338 342 344 344 345 345
317 317 317 318 318 318 318 318 318 318 318 318 318 318 319 319 318 318 318 317 318 319 319 319 319 319 321 327 332 331 338 339 340 334 334 335 337 336 336 338 341 342 344 345 344 344 343
317 317 317 317 318 318 318 318 318 319 319 319 318 318 318 318 319 318 318 318 318 319 319 319 320 320 323 328 331 330 338 338 335 334 335 336 336 336 336 338 341 342 340 342 345 344 342
318 318 318 318 319 319 319 319 320 320 320 320 319 317 317 318 318 318 318 318 318 319 319 320 322 332 329 331 330 330 334 335 334 336 336 336 336 336 336 336 339 341 343 342 343 340 343
320 319 319 320 321 321 322 322 322 322 322 322 321 319 316 317 318 318 318 318 319 319 319 321 324 329 325 331 329 330 335 336 336 337 337 337 338 334 334 337 341 340 340 342 343 342 344
323 323 322 321 322 323 323 323 323 323 323 323 322 321 316 317 318 318 318 319 329 325 320 325 322 326 330 329 328 330 335 336 336 336 336 339 336 337 338 338 338 340 339 340 342 341 348
322 322 322 323 323 323 323 323 323 323 323 323 322 321 317 317 318 318 317 319 327 327 327 329 330 326 325 326 328 331 335 336 335 335 337 336 335 336 339 339 339 339 340 340 341 341 339
322 322 322 322 323 324 324 324 324 324 323 323 322 321 318 317 317 323 325 322 324 325 326 327 329 328 328 328 329 331 333 336 336 335 336 336 337 340 341 340 341 339 338 338 337 338 336
321 321 321 321 322 322 323 324 324 324 324 323 322 321 319 317 320 326 325 326 325 325 325 325 325 329 328 327 328 329 330 334 336 336 336 336 338 339 337 339 339 333 336 337 338 337 339
321 320 320 320 321 322 322 323 324 324 324 324 321 320 319 318 318 320 325 326 325 326 331 329 326 328 327 327 328 328 329 333 335 336 336 337 338 339 339 338 338 335 336 336 336 332 337
321 321 321 321 320 320 322 323 324 324 324 324 321 320 319 318 318 320 321 324 325 328 332 329 328 326 325 327 327 327 328 332 334 334 335 337 339 339 339 339 338 336 336 335 333 334 337
321 321 321 320 320 322 322 323 323 324 324 323 321 319 318 318 319 326 324 324 327 330 331 328 326 325 324 324 325 324 326 328 327 330 332 334 335 337 339 337 338 337 332 333 337 337 338
319 319 320 320 321 322 322 323 323 324 324 323 320 318 319 320 318 325 324 325 331 332 328 330 326 326 324 324 324 325 325 325 326 326 329 332 333 334 336 337 337 334 330 331 339 337 338
320 320 321 320 320 322 323 323 323 324 324 322 319 320 323 325 319 322 324 327 330 331 330 330 328 327 326 325 324 325 324 326 326 325 326 327 329 331 332 333 333 332 332 330 332 332 333
319 320 320 320 320 322 323 322 324 325 324 321 319 324 326 331 322 323 325 325 327 328 328 330 330 329 325 324 324 324 325 327 327 325 325 324 323 326 329 331 331 330 330 330 332 333 346
318 319 319 320 321 322 323 322 324 324 324 321 320 331 332 328 323 324 324 325 326 327 328 329 329 328 327 329 325 325 326 327 327 327 325 323 322 325 327 328 328 329 328 328 329 329 331
319 319 320 320 321 322 322 322 324 324 323 321 325 331 331 326 325 324 324 324 325 326 327 328 328 327 327 329 330 326 327 328 329 328 326 324 322 323 325 327 327 326 327 328 331 330 331
319 319 320 321 322 322 322 322 323 323 323 322 322 328 329 325 325 324 325 325 325 325 326 328 327 326 327 328 331 333 329 329 329 327 326 326 324 323 324 326 329 327 328 328 328 329 339
318 319 320 320 322 322 322 322 323 323 323 322 325 334 332 327 326 324 326 330 330 326 327 327 327 326 328 328 330 332 333 329 329 329 327 327 324 323 324 331 331 332 330 329 330 328 339
320 320 320 321 321 321 321 322 323 323 323 322 327 332 332 337 334 329 326 326 329 331 329 327 326 326 327 330 333 332 337 329 328 326 327 323 324 326 324 332 332 335 335 333 332 329 334
320 320 320 320 321 321 321 321 323 324 323 328 330 330 328 329 330 333 332 333 330 332 334 329 326 326 327 329 331 340 340 337 339 333 326 325 324 329 328 331 334 335 335 334 333 333 330
321 322 321 320 320 321 321 321 323 324 323 325 329 328 328 329 329 330 335 335 333 335 335 333 334 328 330 334 337 336 337 336 336 336 328 324 324 325 327 331 333 336 337 337 333 335 336
322 323 321 320 321 321 320 321 322 322 322 322 323 328 329 331 330 330 332 332 333 333 335 332 332 334 337 338 335 336 336 336 335 334 332 328 326 328 329 331 334 340 338 337 339 339 336
321 321 321 320 321 321 320 320 321 321 321 322 327 328 329 331 330 331 330 331 332 330 332 332 333 335 334 337 338 340 340 337 338 336 333 334 336 334 328 331 333 340 338 337 337 340 337
319 320 321 321 321 321 320 319 319 321 321 321 327 328 328 329 329 329 330 329 331 333 335 335 333 334 338 336 337 343 345 343 343 338 337 334 339 343 346 344 344 342 339 336 336 339 338
317 318 320 320 322 321 320 318 318 320 321 320 325 328 328 328 327 329 330 330 329 330 336 332 331 333 334 337 338 345 343 342 345 343 342 340 344 342 341 342 341 339 338 336 336 337 337
316 316 317 319 320 320 320 318 317 318 321 320 325 328 327 327 327 324 328 329 330 330 336 330 335 339 339 342 341 342 342 341 344 341 342 340 344 343 341 342 341 334 338 342 342 338 339
314 316 316 317 318 319 319 318 317 318 320 320 327 327 325 325 325 323 323 327 327 329 328 333 336 333 336 342 340 339 341 341 341 342 336 342 339 340 342 346 341 337 342 338 337 335 338
Wind_Speed
9 9 10 10 11 11 12 13 13 14 14 15 16 16 17 17 17 17 16 15 14 13 12 12 12 9 7 5 13 7 12 12 13 14 15 15 21 26 16 4 6 10 9 25 12 23 23
9 9 10 11 11 12 13 14 14 15 15 16 17 17 18 18 18 17 17 15 13 11 11 11 10 9 7 6 1 3 13 13 14 14 16 15 23 28 11 4 7 15 19 23 27 17 22
9 9 10 11 12 13 14 15 16 17 17 18 18 18 18 19 19 18 17 15 11 10 9 9 9 9 9 14 3 5 11 14 15 12 17 20 26 16 18 1 17 25 20 15 25 21 8
10 11 11 11 12 13 14 15 16 17 19 19 19 19 19 20 20 19 17 14 9 7 8 7 6 9 10 7 5 12 11 11 13 8 14 17 16 15 19 4 7 6 4 7 10 10 3
11 11 11 12 13 14 15 16 17 18 19 20 21 20 20 20 20 19 16 13 8 6 6 6 3 5 12 6 13 14 13 14 12 12 14 15 13 16 22 7 7 9 3 5 6 16 4
12 12 12 12 13 14 15 17 18 18 20 21 21 21 20 19 20 19 13 10 7 6 5 6 6 6 14 16 13 15 16 16 17 13 18 19 16 5 6 5 9 5 8 10 8 5 10
13 14 13 13 14 15 16 17 18 19 20 21 22 22 20 18 18 19 11 7 7 2 10 12 10 17 3 10 13 17 17 17 18 19 8 18 3 3 6 3 8 5 18 11 13 18 13
14 16 16 15 15 16 17 18 19 20 20 21 22 23 22 18 16 15 11 7 10 13 9 19 26 27 29 13 14 20 20 21 18 8 10 8 8 10 8 14 13 8 9 11 13 17 9
13 14 16 18 18 18 18 19 20 21 22 22 23 23 22 17 14 4 9 8 8 10 8 16 21 26 26 14 17 16 20 24 10 10 10 12 13 11 8 15 16 14 12 8 9 7 5
12 14 17 18 20 20 20 20 21 21 22 23 23 23 23 19 8 7 6 13 6 10 4 7 11 22 23 15 10 19 23 21 9 13 13 9 6 7 17 15 20 3 11 5 7 2 5
14 16 18 20 22 22 22 22 22 22 23 24 23 23 21 20 15 12 7 1 8 4 3 8 15 8 17 23 4 19 23 27 14 14 8 15 11 11 11 22 21 5 6 6 6 3 8
17 18 20 22 23 24 24 23 23 23 24 25 23 22 22 18 13 4 6 5 8 1 6 5 11 9 12 18 22 12 20 30 21 15 15 15 15 4 5 20 17 10 2 1 3 5 3
19 20 22 23 25 26 26 23 24 24 25 26 24 21 23 16 9 1 3 10 1 4 7 10 10 10 12 10 16 11 10 10 8 5 9 13 9 12 18 13 9 11 3 3 5 4 5
19 20 22 23 25 26 25 23 23 24 25 27 25 20 16 12 11 8 0 2 5 10 9 1 10 10 9 10 11 11 8 8 9 9 7 9 12 7 9 11 11 5 7 5 5 4 4
20 20 21 23 25 26 24 22 23 24 24 29 25 17 10 1 9 11 6 4 6 6 14 10 12 12 8 10 8 13 12 11 9 11 11 8 9 14 11 12 5 8 5 9 6 5 5
21 21 21 23 25 24 22 21 23 24 24 29 26 17 11 7 7 12 3 6 7 14 18 11 6 5 8 11 11 8 9 9 9 11 12 13 7 12 15 10 8 9 7 4 3 3 5
21 20 21 22 23 22 21 21 22 24 23 23 18 7 11 12 10 9 4 6 11 26 23 4 9 11 11 5 12 11 10 10 15 15 15 12 6 20 7 5 10 3 5 5 2 4 5
20 19 19 20 20 19 19 19 20 23 24 19 4 3 14 14 7 6 6 6 10 23 28 1 6 7 12 13 6 13 12 10 23 22 9 12 6 7 12 9 11 9 10 10 5 9 2
17 17 17 18 17 16 16 17 17 20 24 26 11 9 12 16 4 7 12 13 22 19 16 2 5 8 13 11 7 8 10 15 17 9 10 6 4 5 11 7 4 7 9 9 6 4 3
16 14 14 16 13 14 15 16 15 17 20 20 6 3 9 17 18 11 12 13 14 23 4 11 13 15 10 10 9 8 12 5 11 5 5 6 4 7 7 8 2 3 8 9 7 2 4
11 10 12 13 11 12 14 15 13 14 16 17 4 2 3 3 4 12 11 15 15 7 8 14 9 12 10 7 9 8 13 1 9 10 4 6 6 6 9 6 4 4 10 14 8 9 6
7 8 11 11 11 11 13 14 12 12 13 7 5 7 10 20 18 13 13 4 8 13 7 5 9 12 10 8 7 3 2 6 4 11 5 2 6 3 7 7 6 4 8 21 4 8 8
8 10 10 10 10 10 12 13 11 10 10 3 7 12 8 11 9 10 4 4 8 8 12 17 15 10 9 3 10 6 9 11 2 3 5 5 3 1 6 9 7 8 7 6 4 13 4
8 10 10 9 9 8 11 11 10 10 10 9 7 8 5 6 9 11 12 13 11 4 4 16 23 11 18 10 11 24 6 4 5 9 13 6 4 3 5 6 4 4 7 9 17 16 16
7 8 9 8 9 8 9 10 10 9 8 7 3 6 6 6 13 13 16 10 8 10 6 8 24 24 32 14 4 14 4 5 8 8 12 10 4 4 5 3 4 5 5 4 6 8 3
5 7 8 8 9 9 8 8 11 10 8 5 5 3 6 7 6 16 22 15 6 8 6 10 26 24 18 1 3 5 4 3 6 14 12 10 6 4 5 3 3 1 4 11 6 4 12
6 7 8 9 8 8 8 9 10 11 10 7 2 2 5 10 18 15 8 12 15 11 2 8 11 14 17 3 4 5 2 3 3 4 10 7 4 3 1 2 3 5 5 10 4 4 11
8 6 6 7 8 8 9 9 10 10 10 7 4 4 9 8 24 19 12 16 16 14 2 6 8 7 7 3 3 3 4 4 3 3 6 8 8 3 2 4 5 12 14 3 5 3 18
12 9 7 7 7 9 10 9 10 9 8 7 5 6 7 9 17 24 22 19 20 18 14 4 2 5 7 6 2 3 3 5 6 1 3 4 9 4 2 3 10 16 16 6 4 15 16
Wind_Direction
11 4 3 2 358 357 354 352 349 347 345 344 341 340 337 335 333 329 325 319 317 314 316 322 323 317 319 276 259 232 210 202 208 213 227 251 277 277 276 313 133 103 117 94 75 104 95
6 3 358 355 354 352 350 348 346 343 342 339 337 337 336 334 332 329 324 318 312 306 309 315 316 311 304 264 88 224 180 198 201 215 233 262 265 285 236 259 59 138 86 67 35 58 65
357 355 352 350 348 348 345 345 342 340 338 336 334 334 333 331 330 327 323 315 308 299 298 305 309 306 280 234 33 206 196 200 196 216 259 285 300 317 330 289 86 94 94 58 73 297 7
348 344 344 345 342 342 342 340 340 338 336 334 332 332 331 329 327 325 321 312 301 288 288 293 303 310 267 270 229 237 212 204 212 256 274 293 319 307 300 184 83 94 31 118 197 182 254
342 342 341 343 341 339 338 338 338 337 336 334 331 330 330 328 325 324 321 308 288 272 274 280 287 310 273 227 211 209 213 213 232 258 266 276 296 289 295 279 49 37 46 14 299 180 117
340 339 342 344 341 339 338 337 336 336 336 334 332 330 328 326 324 323 321 299 274 254 251 264 232 293 242 225 219 201 209 216 225 243 259 263 263 268 336 76 137 192 289 239 225 285 155
347 343 345 344 340 339 338 339 336 335 334 333 332 330 328 326 323 322 321 304 330 228 227 221 212 216 322 181 191 202 203 216 239 241 245 262 271 121 98 314 168 188 220 228 222 250 156
356 0 358 351 343 339 338 337 338 335 335 333 331 331 330 326 317 315 310 281 1 329 294 275 262 253 264 253 192 201 199 212 231 243 242 272 242 176 78 343 278 196 222 221 224 226 162
355 356 355 353 348 342 337 334 334 334 334 333 330 330 330 327 316 309 315 266 346 333 292 285 239 237 246 240 192 194 212 211 219 241 237 230 250 100 84 257 255 232 202 226 226 123 62
346 351 351 351 346 342 338 334 331 331 330 332 329 328 329 331 308 280 311 7 336 306 299 255 208 227 244 223 270 214 211 217 229 237 243 249 243 135 286 272 255 212 179 280 277 153 201
331 335 340 343 343 340 336 333 330 327 327 329 327 325 324 324 301 283 338 4 326 289 292 151 181 196 210 177 203 225 213 211 219 239 223 246 134 153 222 253 278 179 161 202 262 10 88
318 322 328 332 335 336 334 330 329 325 326 327 323 321 315 314 292 303 270 339 320 280 247 159 151 178 182 211 227 238 222 205 221 246 260 265 156 60 261 281 261 282 265 192 320 92 52
311 315 320 325 329 331 330 327 328 326 326 325 318 318 303 288 258 296 267 269 246 232 262 150 160 177 186 194 224 223 211 191 193 231 264 274 251 174 191 265 278 284 323 344 6 359 220
310 313 317 321 327 329 327 324 326 325 329 324 320 317 297 279 225 213 72 284 247 258 240 137 162 171 176 205 208 238 205 204 199 222 250 229 271 207 253 209 211 239 182 155 188 214 247
305 310 315 319 325 328 326 324 325 325 333 325 326 323 271 221 198 180 237 224 222 235 342 348 155 166 185 211 198 215 236 200 206 200 230 253 247 255 232 245 181 279 308 207 165 273 53
298 304 310 315 322 325 325 326 326 326 335 332 330 324 272 223 191 165 219 248 265 311 304 336 333 191 171 203 203 200 203 195 221 210 201 256 287 267 252 201 229 174 241 356 320 232 148
292 298 305 310 318 320 324 328 327 328 337 339 335 313 143 175 134 193 220 246 277 271 280 326 315 329 327 289 198 214 222 218 204 223 200 225 197 277 324 181 193 218 256 288 247 158 166
288 294 299 306 314 316 324 332 331 332 337 346 353 267 190 172 186 213 236 243 256 278 286 87 300 303 293 299 293 210 219 207 206 209 211 211 188 251 246 252 173 189 191 221 142 274 183
283 289 296 303 308 315 324 331 334 336 341 350 333 276 197 186 233 234 246 243 252 273 281 321 284 248 272 285 322 315 234 206 243 178 194 216 224 277 324 308 178 190 228 215 211 255 207
280 286 293 303 304 313 320 329 332 334 334 341 316 284 196 207 239 282 297 288 273 253 255 291 291 295 290 290 292 286 317 157 101 123 68 79 220 176 217 231 345 291 245 256 218 217 192
280 282 298 305 306 312 319 328 330 330 328 331 249 318 9 307 303 292 257 275 300 305 272 208 269 276 283 307 313 307 359 6 153 131 150 141 234 250 254 252 264 359 279 272 229 238 163
266 278 295 301 303 311 320 329 329 330 331 333 308 359 332 299 301 289 289 277 294 314 38 266 197 252 277 280 272 351 70 20 44 327 183 217 255 257 284 242 211 160 282 298 192 297 251
265 273 284 293 305 316 328 333 334 333 346 323 335 348 329 297 301 310 2 36 4 349 313 334 330 235 254 307 21 195 157 158 341 332 268 208 187 246 267 278 221 219 308 315 257 34 36
262 273 275 291 304 319 332 338 343 339 346 348 349 358 311 297 311 318 336 327 318 303 273 306 328 339 313 33 333 308 244 55 27 332 37 297 202 162 235 298 247 138 9 36 82 52 52
272 263 273 284 296 317 331 347 347 338 332 334 36 359 315 302 316 318 351 340 296 281 274 283 318 322 307 335 139 241 330 359 27 11 34 6 46 323 169 221 217 3 354 35 69 54 73
264 246 267 272 280 299 315 334 346 339 329 325 97 43 301 294 225 341 321 325 325 357 355 347 318 322 304 263 271 246 37 335 5 345 19 16 60 89 16 136 203 235 301 314 302 119 130
296 276 263 266 270 289 306 319 331 335 332 341 133 57 324 288 281 330 310 332 320 318 89 293 326 337 336 254 252 51 64 2 60 48 352 325 7 38 78 313 34 26 315 276 102 213 142
276 272 265 259 257 280 295 311 330 328 326 331 197 41 327 289 284 277 304 315 322 328 61 324 1 29 296 320 33 118 70 8 348 80 82 359 338 275 96 54 266 333 342 34 284 331 57
261 264 270 277 270 276 288 303 325 325 320 320 226 228 281 274 264 283 279 255 251 247 276 219 220 66 287 64 326 55 131 130 183 273 351 209 209 231 266 94 224 299 304 179 42 43 48